Regional Weather Roundup
Issued by NWS Upton, NY

Current Version | Previous Version | Text Only | Print | Product List | Glossary Off
Versions: 1 2 3 4 5 6 7 8 9 10 11 12 13 14 15 16 17 18 19 20 21 22 23 24 25 26 27 28 29 30 31 32 33 34 35 36 37 38 39 40 41 42 43 44 45 46 47 48 49 50
000 ASUS41 KOKX 272004 RWROKX REGIONAL WEATHER ROUNDUP NATIONAL WEATHER SERVICE NEW YORK NY 400 PM EDT WED JUL 27 2016 NOTE: "FAIR" INDICATES FEW OR NO CLOUDS BELOW 12,000 FEET WITH NO SIGNIFICANT WEATHER AND/OR OBSTRUCTIONS TO VISIBILITY. NYZ071-072-176-178-NJZ106-104-272100- NEW YORK CITY METRO AREA CITY SKY/WX TMP DP RH WIND PRES REMARKS Central Park PTSUNNY 89 62 40 CALM 29.93F LaGuardia APRT MOSUNNY 93 59 31 SW7 29.89F HX 92 Kennedy INTL MOSUNNY 86 65 49 S13 29.92F Newark/Liberty MOSUNNY 92 61 35 W10G17 29.90F HX 92 Bronx Bot Gard N/A 91 59 33 W8 29.92F HX 90 Wall St Helipt CLEAR 90 64 43 SW6 29.91F HX 91 Teterboro PTSUNNY 92 57 30 W12G18 29.89F HX 90 $$ NYZ177-179-078>081-272100- LONG ISLAND NEW YORK CITY SKY/WX TMP DP RH WIND PRES REMARKS Farmingdale SUNNY 88 65 46 S12 29.92S HX 90 MacArthur/ISP MOSUNNY 87 66 49 S13 29.91F Shirley SUNNY 86 64 47 S12 29.92F Riverhead NOT AVBL Westhampton SUNNY 83 61 47 S10 29.94F Southhampton N/A 82 66 57 S10 29.89S Bridgehampton N/A 86 63 45 SW3 29.92S East Hampton FAIR 83 61 47 S10 29.92S Montauk N/A 82 64 54 S8 29.94S $$ NYZ052-065-067-272100- HUDSON VALLEY CITY SKY/WX TMP DP RH WIND PRES REMARKS White Plains MOSUNNY 89 59 36 NW10 29.91F Newburgh MOSUNNY 88 59 37 NW7 29.94F Montgomery SUNNY 89 61 38 N5 29.92F Poughkeepsie SUNNY 91 61 36 MISG 29.90F HX 91 Albany MOSUNNY 89 57 33 SW6 29.91F $$ NJZ001-105-106-008-010-013-015-019>022-104-272100- NEW JERSEY CITY SKY/WX TMP DP RH WIND PRES REMARKS Newark/Liberty MOSUNNY 92 61 35 W10G17 29.90F HX 92 Teterboro PTSUNNY 92 57 30 W12G18 29.89F HX 90 Caldwell MOSUNNY 91 58 32 NW10 29.91F HX 90 Morristown MOSUNNY 90 59 35 W12 29.91F Somerville MOSUNNY 91 62 37 NW7 29.90F HX 91 Linden FAIR 90 59 34 CALM 29.92F Sussex SUNNY 88 59 37 VRB5 29.93F Abdover N/A 89 60 37 VRB3 29.94F Trenton SUNNY 89 63 41 W6 29.91F HX 90 Millville PTSUNNY 87 74 64 SE10 29.91F HX 95 Atlantic City PTSUNNY 83 74 74 S8 29.92F Wrightstown MOSUNNY 89 67 48 N1 29.88F HX 91 Toms River SUNNY 87 70 56 SE10 29.92F HX 92 Belmar MOSUNNY 87 68 52 SE8 29.94F HX 90 $$ PAZ047>061-062-071-272100- EASTERN PENNSYLVANIA CITY SKY/WX TMP DP RH WIND PRES REMARKS Philadelphia MOSUNNY 92 64 39 S7 29.91F HX 93 Allentown PTSUNNY 90 63 40 N6 29.93F HX 91 Scranton MOSUNNY 88 58 36 E6G16 29.95F $$ CTZ002-004>006-009-010-012-RIZ004-006-007-MAZ004-011-015-272100- SOUTHERN NEW ENGLAND IN CT CITY SKY/WX TMP DP RH WIND PRES REMARKS Bradley INTL MOSUNNY 94 54 25 NW7 29.89F HX 92 Hartford PTSUNNY 95 58 28 VRB7 29.87F HX 94 Danbury SUNNY 88 55 32 MISG 29.93F Wtrbury/Oxford MOSUNNY 93 57 29 CALM 29.95F HX 92 Bridgeport SUNNY 87 62 43 S13 29.90F Meriden MOSUNNY 91 56 30 VRB5 29.89F New Haven MOSUNNY 86 64 47 SW7 29.91F Chester FAIR 86 63 45 SW9G15 29.92S Groton MOSUNNY 80 66 62 S13 29.90F Wilimantic NOT AVBL IN RI CITY SKY/WX TMP DP RH WIND PRES REMARKS Providence MOSUNNY 88 66 48 S14 29.89S HX 90 Block Island SUNNY 82 64 54 SW16 29.92F Westerly SUNNY 84 59 42 S14G20 29.92F IN MA CITY SKY/WX TMP DP RH WIND PRES REMARKS Boston MOSUNNY 82 62 50 E18 29.87F Worchester PTSUNNY 85 54 34 W5 29.92F Westfield MOSUNNY 94 54 25 N12 29.88F HX 92 Provincetown SUNNY 85 63 47 VRB7 29.91S Nantucket SUNNY 77 66 68 S8 29.93R $$ ANZ330-335-338-340-345-350-353-355-272100- COASTAL MARINE OBSERVATIONS STATION/POSITION TIME SKY/WX TEMP WIND PRES VSBY WAVE AIR SEA DIR/SP/G HT/PER (UTC) (F) (DEG/KT/KT) (MB) (MI) (FT/S) NY HARB ENTRANCE 1850 78 79 170/ 8/ 10 1013.3 1/ 6 20S FIRE ISLAND 1850 76 79 160/ 6/ 6 1013.3 2/ 6 GREAT SOUTH BAY 1900 78 83 200/ 8/ 10 N/A 23 SSW MONTAUK P 1850 76 74 190/ 4/ 6 1014.2 2/ 6 15 E BARNEGAT LI 1922 79 N/A 1/ 6 HUDSON CANYON 1850 79 80 1013.8 2/ 6 KINGS POINT 1900 88 74 1012.8 EXECUTION ROCKS 1900 84 70/ 4/ 6 N/A CENTRAL LI SOUND 1845 80 78 230/ 6/ 6 N/A 0 EASTERN LI SOUND 1900 74 70 170/ 8/ 10 N/A ROBBINS REEF 1900 79 160/ 15/ 15 1012.4 $$ >>>>>>>>>>>>>>>>>>>>>>>>>>>> KEY <<<<<<<<<<<<<<<<<<<<<<<<<<< > < > SKY/WX - Sky Condition/Present Weather < > TMP - Temperature in Fahrenheit < > DP - Dew Point in Fahrenheit < > RH - Relative Humidity in Percent < > WIND - Direction (from) and Speed in MPH < > PRES - Mean Sea Level Pressure (inches of Hg) < > WCI - Wind Chill Index < > VSB - VISIBILITY IN MILES < > HX - HEAT INDEX < > TC - TEMPERATURE IN CELSIUS < > VRB - VARIABLE WIND DIRECTION < > < >>>>>>>>>>>>>>>>>>>>>>>>>>>> KEY <<<<<<<<<<<<<<<<<<<<<<<<<<<

USA.gov is the U.S. government's official web portal to all federal, state and local government web resources and services.